Stations météo

réclame
Mon MeteoGroup
Falsterbo, Suède (2616): Température de l'air & dewpoint: 12.01.2020 20:00:00 - 18.01.2020 20:00:00 (CET)Falsterbo, Suède (2616): Vitesse du vent: 12.01.2020 20:00:00 - 18.01.2020 20:00:00 (CET)Falsterbo, Suède (2616): Direction du vent: 12.01.2020 20:00:00 - 18.01.2020 20:00:00 (CET)Falsterbo, Suède (2616): reduced air pressure: 12.01.2020 20:00:00 - 18.01.2020 20:00:00 (CET)Falsterbo, Suède (2616): visibility: 12.01.2020 20:00:00 - 18.01.2020 20:00:00 (CET)Falsterbo, Suède (2616): Quantités de précipitations: 12.01.2020 20:00:00 - 18.01.2020 20:00:00 (CET)
Date & Time tt [°C] td [°C] ff [km/h] ff [knt] dd ppp [hPa] vv [km] rr [mm]
18.01.2020 20:00:00 - - - - - - - -
18.01.2020 19:00:00 5,6 4,4 40 21 WSW 1017,8 28 -
18.01.2020 18:00:00 - - - - - - - -
18.01.2020 17:00:00 - - - - - - - -
18.01.2020 16:00:00 5,8 4,3 40 21 SW 1016,1 25 -
18.01.2020 15:00:00 - - - - - - - -
18.01.2020 14:00:00 - - - - - - - -
18.01.2020 13:00:00 5,7 3,7 47 25 WSW 1015,0 22 -
18.01.2020 12:00:00 - - - - - - - -
18.01.2020 11:00:00 - - - - - - - -
18.01.2020 10:00:00 5,8 3,6 47 25 SW 1014,6 23 -
18.01.2020 09:00:00 - - - - - - - -
18.01.2020 08:00:00 - - - - - - - -
18.01.2020 07:00:00 5,9 4,2 43 23 SW 1013,0 30 -
18.01.2020 06:00:00 - - - - - - - -
18.01.2020 05:00:00 - - - - - - - -
18.01.2020 04:00:00 - - - - - - - -
18.01.2020 03:00:00 - - - - - - - -
18.01.2020 02:00:00 - - - - - - - -
18.01.2020 01:00:00 - - - - - - - -
18.01.2020 00:00:00 - - - - - - - -
17.01.2020 23:00:00 - - - - - - - -
17.01.2020 22:00:00 - - - - - - - -
17.01.2020 21:00:00 - - - - - - - -
17.01.2020 20:00:00 - - - - - - - -
17.01.2020 19:00:00 5,6 4,6 29 16 S 1012,8 8 0,0
17.01.2020 18:00:00 - - - - - - - -
17.01.2020 17:00:00 - - - - - - - -
17.01.2020 16:00:00 5,8 4,4 22 12 SSE 1014,1 7 -
17.01.2020 15:00:00 - - - - - - - -
17.01.2020 14:00:00 - - - - - - - -
17.01.2020 13:00:00 6,5 5,0 29 16 SSE 1016,2 13 0,0
17.01.2020 12:00:00 - - - - - - - -
17.01.2020 11:00:00 - - - - - - - -
17.01.2020 10:00:00 5,5 4,8 32 18 S 1018,4 9 -
17.01.2020 09:00:00 - - - - - - - -
17.01.2020 08:00:00 - - - - - - - -
17.01.2020 07:00:00 5,0 4,4 29 16 S 1019,8 8 0,0
17.01.2020 06:00:00 - - - - - - - -
17.01.2020 05:00:00 - - - - - - - -
17.01.2020 04:00:00 - - - - - - - -
17.01.2020 03:00:00 - - - - - - - -
17.01.2020 02:00:00 - - - - - - - -
17.01.2020 01:00:00 - - - - - - - -
17.01.2020 00:00:00 - - - - - - - -
16.01.2020 23:00:00 - - - - - - - -
16.01.2020 22:00:00 - - - - - - - -
16.01.2020 21:00:00 - - - - - - - -
16.01.2020 20:00:00 - - - - - - - -
16.01.2020 19:00:00 5,4 4,7 22 12 SW 1025,8 5 0,0
16.01.2020 18:00:00 - - - - - - - -
16.01.2020 17:00:00 - - - - - - - -
16.01.2020 16:00:00 6,0 4,6 29 16 WSW 1025,6 5 -
16.01.2020 15:00:00 - - - - - - - -
16.01.2020 14:00:00 - - - - - - - -
16.01.2020 13:00:00 6,8 5,1 29 16 SW 1024,5 13 0,0
16.01.2020 12:00:00 - - - - - - - -
16.01.2020 11:00:00 - - - - - - - -
16.01.2020 10:00:00 6,4 5,0 36 19 WSW 1022,9 12 -
16.01.2020 09:00:00 - - - - - - - -
16.01.2020 08:00:00 - - - - - - - -
16.01.2020 07:00:00 6,5 5,0 36 19 WSW 1019,9 23 -
16.01.2020 06:00:00 - - - - - - - -
16.01.2020 05:00:00 - - - - - - - -
16.01.2020 04:00:00 - - - - - - - -
16.01.2020 03:00:00 - - - - - - - -
16.01.2020 02:00:00 - - - - - - - -
16.01.2020 01:00:00 - - - - - - - -
16.01.2020 00:00:00 - - - - - - - -
15.01.2020 23:00:00 - - - - - - - -
15.01.2020 22:00:00 - - - - - - - -
15.01.2020 21:00:00 - - - - - - - -
15.01.2020 20:00:00 - - - - - - - -
15.01.2020 19:00:00 8,0 5,8 29 16 SSW 1007,8 40 -
15.01.2020 18:00:00 - - - - - - - -
15.01.2020 17:00:00 - - - - - - - -
15.01.2020 16:00:00 8,0 6,0 25 14 SSW 1006,8 60 -
15.01.2020 15:00:00 - - - - - - - -
15.01.2020 14:00:00 - - - - - - - -
15.01.2020 13:00:00 8,6 6,4 32 18 SSW 1006,4 28 -
15.01.2020 12:00:00 - - - - - - - -
15.01.2020 11:00:00 - - - - - - - -
15.01.2020 10:00:00 8,4 6,5 43 23 SSW 1004,9 23 -
15.01.2020 09:00:00 - - - - - - - -
15.01.2020 08:00:00 - - - - - - - -
15.01.2020 07:00:00 8,2 6,5 47 25 SSW 1003,4 30 -
15.01.2020 06:00:00 - - - - - - - -
15.01.2020 05:00:00 - - - - - - - -
15.01.2020 04:00:00 - - - - - - - -
15.01.2020 03:00:00 - - - - - - - -
15.01.2020 02:00:00 - - - - - - - -
15.01.2020 01:00:00 - - - - - - - -
15.01.2020 00:00:00 - - - - - - - -
14.01.2020 23:00:00 - - - - - - - -
14.01.2020 22:00:00 - - - - - - - -
14.01.2020 21:00:00 - - - - - - - -
14.01.2020 20:00:00 - - - - - - - -
14.01.2020 19:00:00 6,2 5,6 29 16 S 1004,2 25 -
14.01.2020 18:00:00 - - - - - - - -
14.01.2020 17:00:00 - - - - - - - -
14.01.2020 16:00:00 5,8 4,8 18 10 SW 1003,9 22 -
14.01.2020 15:00:00 - - - - - - - -
14.01.2020 14:00:00 - - - - - - - -
14.01.2020 13:00:00 6,7 6,3 40 21 SSW 1001,8 12 -
14.01.2020 12:00:00 - - - - - - - -
14.01.2020 11:00:00 - - - - - - - -
14.01.2020 10:00:00 5,5 5,1 43 23 S 1002,1 5 -
14.01.2020 09:00:00 - - - - - - - -
14.01.2020 08:00:00 - - - - - - - -
14.01.2020 07:00:00 5,1 4,2 43 23 S 1003,6 13 -
14.01.2020 06:00:00 - - - - - - - -
14.01.2020 05:00:00 - - - - - - - -
14.01.2020 04:00:00 - - - - - - - -
14.01.2020 03:00:00 - - - - - - - -
14.01.2020 02:00:00 - - - - - - - -
14.01.2020 01:00:00 - - - - - - - -
14.01.2020 00:00:00 - - - - - - - -
13.01.2020 23:00:00 - - - - - - - -
13.01.2020 22:00:00 - - - - - - - -
13.01.2020 21:00:00 - - - - - - - -
13.01.2020 20:00:00 - - - - - - - -
13.01.2020 19:00:00 5,4 4,8 18 10 SSW 1014,4 10 0,0
13.01.2020 18:00:00 - - - - - - - -
13.01.2020 17:00:00 - - - - - - - -
13.01.2020 16:00:00 5,5 4,6 18 10 SSW 1014,8 10 -
13.01.2020 15:00:00 - - - - - - - -
13.01.2020 14:00:00 - - - - - - - -
13.01.2020 13:00:00 5,7 4,7 25 14 SW 1016,1 15 0,0
13.01.2020 12:00:00 - - - - - - - -
13.01.2020 11:00:00 - - - - - - - -
13.01.2020 10:00:00 5,3 4,6 29 16 WSW 1016,5 14 -
13.01.2020 09:00:00 - - - - - - - -
13.01.2020 08:00:00 - - - - - - - -
13.01.2020 07:00:00 5,7 5,0 25 14 WSW 1015,3 27 -
13.01.2020 06:00:00 - - - - - - - -
13.01.2020 05:00:00 - - - - - - - -
13.01.2020 04:00:00 - - - - - - - -
13.01.2020 03:00:00 - - - - - - - -
13.01.2020 02:00:00 - - - - - - - -
13.01.2020 01:00:00 - - - - - - - -
13.01.2020 00:00:00 - - - - - - - -
12.01.2020 23:00:00 - - - - - - - -
12.01.2020 22:00:00 - - - - - - - -
12.01.2020 21:00:00 - - - - - - - -
12.01.2020 20:00:00 - - - - - - - -

tt = Température de l'air
td = dewpoint
ff = Vitesse du vent
dd = Direction du vent
ppp = reduced air pressure
vv = visibility
rr = Quantités de précipitations

stations d'obs. à proximité